• MPC Preparation (Info)

  • MPEC 2019-T155 : S/2004 S 33

    The following Minor Planet Electronic Circular may be linked-to from your own Web pages, but must not otherwise be redistributed electronically.

    A form allowing access to any MPEC is at the bottom of this page.


    Read MPEC 2019-T154 Read MPEC 2019-T156


    M.P.E.C. 2019-T155                              Issued 2019 October 8, 17:01 UT
    
         The Minor Planet Electronic Circulars contain information on unusual
             minor planets and routine data on comets.  They are published
        on behalf of Division F of the International Astronomical Union by the
              Minor Planet Center, Smithsonian Astrophysical Observatory,
                              Cambridge, MA 02138, U.S.A.
    
                 Prepared using the Tamkin Foundation Computer Network
    
                                  MPC@CFA.HARVARD.EDU
                URL https://www.minorplanetcenter.net/    ISSN 1523-6714
    
                                   S/2004 S 33                               
    
    
    Observations:
        SK04S330* C2004 12 12.44635 07 54 36.446+20 59 10.52         25.1 RcET155568
        SK04S330  C2004 12 12.50214 07 54 35.653+20 59 13.01         25.4 RcET155568
        SK04S330  C2005 01 05.59696 07 47 29.293+21 19 10.24         24.9 RcET155568
        SK04S330  C2005 01 05.61929 07 47 28.846+21 19 11.15         24.7 RcET155568
        SK04S330  C2006 01 05.52396 08 51 09.638+18 04 40.04               cET155568
        SK04S330  C2006 01 05.56917 08 51 08.823+18 04 43.64               cET155568
        SK04S330  C2006 01 06.52532 08 50 51.612+18 05 58.87         25.0 RcET155568
        SK04S330  C2006 01 06.53756 08 50 51.381+18 06 00.03         25.2 RcET155568
        SK04S330  C2006 02 01.29196 08 42 08.554+18 42 45.20         25.2 RVET155568
        SK04S330  C2006 02 01.30515 08 42 08.279+18 42 46.59         25.1 RVET155568
        SK04S330  C2007 01 19.39851 09 42 01.687+15 30 58.41         25.0 RcET155568
        SK04S330  C2007 01 19.41302 09 42 01.454+15 30 59.64               cET155568
        SK04S330  C2007 01 19.42754 09 42 01.216+15 31 01.17               cET155568
        SK04S330  C2007 01 25.40305 09 40 21.741+15 40 45.79         25.0 RcET155568
        SK04S330  C2007 01 25.41689 09 40 21.486+15 40 47.15         25.0 RcET155568
        SK04S330  C2007 02 18.36309 09 33 01.295+16 21 07.28         24.9 RVET155568
        SK04S330  C2007 02 18.37831 09 33 01.031+16 21 08.91         25.0 RVET155568
        SK04S330  C2007 02 18.41813 09 33 00.251+16 21 12.59         25.0 RVET155568
        SK04S330  C2007 03 22.29163 09 24 46.433+17 02 02.10         25.1 RVET155568
        SK04S330  C2007 03 22.30208 09 24 46.311+17 02 02.57         25.1 RVET155568
    
    Observer details:
    568 Mauna Kea.  Observers S. S. Sheppard, D. C. Jewitt, J. Kleyna.  Measurer S. 
       S. Sheppard.  8.2-m reflector + CCD.
    
    Orbital elements:
    S/2004 S 33
    Epoch 2019 Apr. 27.0 TT = JDT 2458600.5                 Williams
    M 180.74258              (2000.0)            P               Q
    n   0.25664096     Peri.  332.05067     -0.55353670     +0.76404820
    a   0.1615535      Node    97.51995     +0.81278006     +0.40882359
    e   0.3994462      Incl.  160.47140     +0.18161965     +0.49909279
    P   3.84           H   15.9           P/d  1402.74
    From 20 observations 2004 Dec. 12-2007 Mar. 22, mean residual 0".24.
    
    Residuals in seconds of arc
    041212 568  0.3-  0.3-    060106 568  0.5+  0.1+    070125 568  0.3-  0.2-
    041212 568  0.0   0.2-    060201 568  0.1-  0.2-    070218 568  0.0   0.0
    050105 568  0.1+  0.4+    060201 568  0.0   0.0     070218 568  0.4+  0.1+
    050105 568  0.2+  0.1+    070119 568  0.0   0.3+    070218 568  0.0   0.1-
    060105 568  0.6-  0.1+    070119 568  0.1+  0.2+    070322 568  0.0   0.1-
    060105 568  0.4-  0.1+    070119 568  0.1+  0.3+    070322 568  0.0   0.2-
    060106 568  0.6+  0.1-    070125 568  0.2-  0.1-
    
    
    A. U. Tomatic                (C) Copyright 2019 MPC           M.P.E.C. 2019-T155
    


    Read MPEC 2019-T154 Read MPEC 2019-T156


    MPEC number:

    Enter an MPEC number in one of the following forms:

    • 1997-B01 (the full form)
    • J97B01 (the packed version of the full form)
    • B01 (the abbreviated form)